• In Deutschland
  • Länderverzeichnis
  • Für 7 Tage
  • Wassertemperatur
  • Satellitenkarten
  • Wetterkarte
  • Widgets
  • user-avatar
    Anmelden

    Stündliche Wetter Sliwen

    Heute, 16 Juli, Montag

    Zeit Temperatur Niederschläge Wind Luftdruck Luftfeuchtigkeit
    00:00 +20°C° 0 mm 2 m/S 729 mmHg 64%
    01:00 +20°C° 0 mm 2 m/S 729 mmHg 65%
    02:00 +19°C° 0 mm 2 m/S 729 mmHg 66%
    03:00 +19°C° 0 mm 2 m/S 729 mmHg 68%
    04:00 +18°C° 0 mm 2 m/S 729 mmHg 70%
    05:00 +18°C° 0 mm 2 m/S 729 mmHg 71%
    06:00 +20°C° 0 mm 3 m/S 729 mmHg 66%
    07:00 +22°C° 0 mm 3 m/S 729 mmHg 60%
    08:00 +25°C° 0 mm 4 m/S 730 mmHg 54%
    09:00 +26°C° 0 mm 4 m/S 730 mmHg 49%
    10:00 +27°C° 0 mm 4 m/S 730 mmHg 44%
    11:00 +29°C° 0 mm 5 m/S 729 mmHg 39%
    12:00 +30°C° 0 mm 5 m/S 729 mmHg 37%
    13:00 +30°C° 0 mm 4 m/S 729 mmHg 35%
    14:00 +32°C° 0 mm 4 m/S 729 mmHg 33%
    15:00 +32°C° 0 mm 4 m/S 729 mmHg 34%
    16:00 +32°C° 0 mm 4 m/S 729 mmHg 34%
    17:00 +30°C° 0 mm 4 m/S 728 mmHg 35%
    18:00 +28°C° 0 mm 3 m/S 728 mmHg 40%
    19:00 +26°C° 0 mm 3 m/S 728 mmHg 46%
    20:00 +24°C° 0 mm 2 m/S 728 mmHg 51%
    21:00 +23°C° 0 mm 2 m/S 728 mmHg 52%
    22:00 +21°C° 0 mm 2 m/S 728 mmHg 53%
    23:00 +21°C° 0 mm 1 m/S 728 mmHg 54%

    Morgen, 17 Juli, Dienstag

    Zeit Temperatur Niederschläge Wind Luftdruck Luftfeuchtigkeit
    00:00 +21°C° 0 mm 1 m/S 728 mmHg 55%
    01:00 +21°C° 0 mm 1 m/S 728 mmHg 55%
    02:00 +20°C° 0 mm 1 m/S 728 mmHg 56%
    03:00 +20°C° 0 mm 1 m/S 727 mmHg 57%
    04:00 +20°C° 0 mm 1 m/S 727 mmHg 58%
    05:00 +19°C° 0 mm 1 m/S 727 mmHg 59%
    06:00 +21°C° 0 mm 2 m/S 727 mmHg 54%
    07:00 +24°C° 0 mm 2 m/S 727 mmHg 50%
    08:00 +26°C° 0 mm 2 m/S 727 mmHg 45%
    09:00 +28°C° 0 mm 2 m/S 727 mmHg 41%
    10:00 +29°C° 0 mm 3 m/S 727 mmHg 38%
    11:00 +31°C° 0 mm 3 m/S 727 mmHg 34%
    12:00 +33°C° 0 mm 3 m/S 727 mmHg 33%
    13:00 +33°C° 0 mm 3 m/S 726 mmHg 32%
    14:00 +34°C° 0 mm 3 m/S 726 mmHg 31%
    15:00 +34°C° 0 mm 3 m/S 726 mmHg 33%
    16:00 +33°C° 0 mm 3 m/S 725 mmHg 34%
    17:00 +33°C° 0 mm 3 m/S 725 mmHg 36%
    18:00 +30°C° 0,1 mm 3 m/S 725 mmHg 42%
    19:00 +28°C° 0,1 mm 2 m/S 725 mmHg 48%
    20:00 +26°C° 0,1 mm 2 m/S 725 mmHg 54%
    21:00 +25°C° 0,5 mm 2 m/S 725 mmHg 58%
    22:00 +24°C° 0,5 mm 1 m/S 725 mmHg 61%
    23:00 +23°C° 0,5 mm 1 m/S 725 mmHg 65%

    übermorgen, 18 Juli, Mittwoch

    Zeit Temperatur Niederschläge Wind Luftdruck Luftfeuchtigkeit
    00:00 +23°C° 0,3 mm 1 m/S 725 mmHg 68%
    01:00 +21°C° 0,3 mm 2 m/S 725 mmHg 71%
    02:00 +20°C° 0,3 mm 2 m/S 725 mmHg 75%
    03:00 +20°C° 0 mm 2 m/S 725 mmHg 76%
    04:00 +20°C° 0 mm 3 m/S 725 mmHg 77%
    05:00 +19°C° 0 mm 3 m/S 724 mmHg 78%
    06:00 +21°C° 0 mm 3 m/S 725 mmHg 71%
    07:00 +23°C° 0 mm 4 m/S 725 mmHg 64%
    08:00 +25°C° 0 mm 5 m/S 725 mmHg 57%
    09:00 +27°C° 0 mm 6 m/S 725 mmHg 51%
    10:00 +28°C° 0 mm 6 m/S 725 mmHg 45%
    11:00 +30°C° 0 mm 7 m/S 725 mmHg 39%
    12:00 +30°C° 0 mm 7 m/S 725 mmHg 38%
    13:00 +30°C° 0 mm 7 m/S 725 mmHg 37%
    14:00 +32°C° 0 mm 7 m/S 725 mmHg 35%
    15:00 +30°C° 0 mm 7 m/S 725 mmHg 37%
    16:00 +30°C° 0 mm 7 m/S 725 mmHg 39%
    17:00 +30°C° 0 mm 7 m/S 725 mmHg 40%
    18:00 +28°C° 0 mm 6 m/S 725 mmHg 46%
    19:00 +26°C° 0 mm 5 m/S 725 mmHg 52%
    20:00 +25°C° 0 mm 4 m/S 725 mmHg 57%
    21:00 +23°C° 0 mm 4 m/S 725 mmHg 58%
    22:00 +22°C° 0 mm 4 m/S 726 mmHg 60%
    23:00 +21°C° 0 mm 4 m/S 726 mmHg 61%

    19 Juli, Donnerstag

    Zeit Temperatur Niederschläge Wind Luftdruck Luftfeuchtigkeit
    00:00 +21°C° 0 mm 4 m/S 726 mmHg 63%
    01:00 +20°C° 0 mm 4 m/S 726 mmHg 64%
    02:00 +20°C° 0 mm 4 m/S 725 mmHg 65%
    03:00 +19°C° 0 mm 3 m/S 725 mmHg 67%
    04:00 +19°C° 0 mm 3 m/S 726 mmHg 69%
    05:00 +19°C° 0 mm 3 m/S 726 mmHg 71%
    06:00 +20°C° 0 mm 4 m/S 726 mmHg 67%
    07:00 +21°C° 0 mm 5 m/S 726 mmHg 63%
    08:00 +23°C° 0 mm 5 m/S 726 mmHg 59%
    09:00 +25°C° 0 mm 5 m/S 727 mmHg 56%
    10:00 +27°C° 0 mm 5 m/S 727 mmHg 52%
    11:00 +28°C° 0 mm 5 m/S 727 mmHg 48%
    12:00 +28°C° 0 mm 5 m/S 727 mmHg 48%
    13:00 +29°C° 0 mm 5 m/S 727 mmHg 48%
    14:00 +29°C° 0 mm 5 m/S 727 mmHg 48%
    15:00 +29°C° 0 mm 5 m/S 727 mmHg 50%
    16:00 +28°C° 0 mm 5 m/S 727 mmHg 52%
    17:00 +28°C° 0 mm 5 m/S 727 mmHg 54%
    18:00 +26°C° 0 mm 4 m/S 727 mmHg 61%
    19:00 +25°C° 0 mm 4 m/S 728 mmHg 67%
    20:00 +22°C° 0 mm 3 m/S 728 mmHg 73%
    21:00 +22°C° 0 mm 3 m/S 728 mmHg 75%
    22:00 +21°C° 0 mm 2 m/S 728 mmHg 77%
    23:00 +20°C° 0 mm 2 m/S 729 mmHg 80%

    20 Juli, Freitag

    Zeit Temperatur Niederschläge Wind Luftdruck Luftfeuchtigkeit
    00:00 +20°C° 0 mm 2 m/S 729 mmHg 81%
    01:00 +20°C° 0 mm 2 m/S 729 mmHg 82%
    02:00 +19°C° 0 mm 2 m/S 729 mmHg 83%
    03:00 +19°C° 0 mm 2 m/S 729 mmHg 84%
    04:00 +19°C° 0 mm 2 m/S 729 mmHg 85%
    05:00 +20°C° 0 mm 1 m/S 729 mmHg 87%
    06:00 +20°C° 0 mm 2 m/S 729 mmHg 79%
    07:00 +23°C° 0 mm 2 m/S 730 mmHg 72%
    08:00 +25°C° 0 mm 2 m/S 730 mmHg 65%
    09:00 +27°C° 0 mm 2 m/S 730 mmHg 60%
    10:00 +28°C° 0 mm 2 m/S 730 mmHg 55%
    11:00 +30°C° 0 mm 1 m/S 730 mmHg 49%
    12:00 +30°C° 0,4 mm 1 m/S 730 mmHg 48%
    13:00 +31°C° 0,4 mm 1 m/S 730 mmHg 48%
    14:00 +31°C° 0,4 mm 1 m/S 729 mmHg 47%
    15:00 +31°C° 0,8 mm 1 m/S 729 mmHg 49%
    16:00 +31°C° 0,8 mm 1 m/S 729 mmHg 50%
    17:00 +30°C° 0,8 mm 1 m/S 729 mmHg 52%
    18:00 +29°C° 0,2 mm 1 m/S 729 mmHg 56%
    19:00 +28°C° 0,2 mm 1 m/S 729 mmHg 60%
    20:00 +26°C° 0,2 mm 1 m/S 730 mmHg 64%
    21:00 +26°C° 0,1 mm 1 m/S 730 mmHg 66%
    22:00 +25°C° 0,1 mm 1 m/S 730 mmHg 69%
    23:00 +24°C° 0,1 mm 1 m/S 730 mmHg 71%

    21 Juli, Samstag

    Zeit Temperatur Niederschläge Wind Luftdruck Luftfeuchtigkeit
    00:00 +24°C° 0 mm 1 m/S 730 mmHg 73%
    01:00 +21°C° 0 mm 0 m/S 730 mmHg 74%
    02:00 +21°C° 0 mm 0 m/S 730 mmHg 76%
    03:00 +21°C° 0 mm 0 m/S 730 mmHg 77%
    04:00 +20°C° 0 mm 0 m/S 730 mmHg 78%
    05:00 +20°C° 0 mm 0 m/S 730 mmHg 79%
    06:00 +22°C° 0 mm 0 m/S 730 mmHg 72%
    07:00 +24°C° 0 mm 0 m/S 730 mmHg 66%
    08:00 +26°C° 0 mm 0 m/S 730 mmHg 59%
    09:00 +29°C° 0,1 mm 1 m/S 730 mmHg 55%
    10:00 +31°C° 0,1 mm 1 m/S 730 mmHg 50%
    11:00 +32°C° 0,1 mm 1 m/S 730 mmHg 45%
    12:00 +32°C° 0,5 mm 1 m/S 730 mmHg 45%
    13:00 +33°C° 0,5 mm 1 m/S 730 mmHg 44%
    14:00 +33°C° 0,5 mm 1 m/S 729 mmHg 43%
    15:00 +33°C° 0,1 mm 1 m/S 729 mmHg 43%
    16:00 +33°C° 0,1 mm 1 m/S 729 mmHg 44%
    17:00 +32°C° 0,1 mm 1 m/S 729 mmHg 45%
    18:00 +31°C° 0 mm 1 m/S 728 mmHg 50%
    19:00 +29°C° 0 mm 2 m/S 728 mmHg 55%
    20:00 +27°C° 0 mm 2 m/S 728 mmHg 59%
    21:00 +26°C° 0 mm 2 m/S 728 mmHg 65%
    22:00 +25°C° 0 mm 2 m/S 728 mmHg 70%
    23:00 +24°C° 0 mm 2 m/S 728 mmHg 75%
    Mehr zeigen